Location: Unspecified
(43.3830°N, 0.0000°E)
Time: 19:42:11
(UTC+00:00)

Explorer 7 - Pass Details

Date: 30 June 2019
Orbit: 485 x 680 km, 50.3° (Epoch: 21 July)

Event Time Altitude Azimuth Distance (km) Brightness Sun altitude
Rises 04:19:21 0° 191° (S) 2,589 9.8 -1.3°
Reaches altitude 10° 04:22:12 10° 168° (SSE) 1,740 9.2 -0.9°
Maximum altitude 04:24:34 16° 131° (SE) 1,455 9.2 -0.5°
Drops below altitude 10° 04:27:02 10° 94° (E) 1,810 10.4 -0.2°
Sets 04:30:04 0° 72° (ENE) 2,755 12.4 0.3°
